Location: Lansingburgh
(42.7845°N, 73.6696°W)
Time: 04:59:18
(UTC+00:00)

YAOGAN 6 - Pass Details

Date: 24 January 2020
Orbit: 465 x 506 km, 97.0° (Epoch: 18 February)

Event Time Altitude Azimuth Distance (km) Brightness Sun altitude
Rises 22:58:30 0° 170° (S) 2,589 6.3 -11.4°
Reaches altitude 10° 23:00:35 10° 171° (S) 1,706 5.4 -11.8°
Maximum altitude 23:04:15 79° 258° (WSW) 515 2.7 -12.4°
Drops below altitude 10° 23:07:56 10° 346° (NNW) 1,703 5.3 -13.1°
Sets 23:10:01 0° 348° (NNW) 2,584 6.2 -13.5°
